Location: Ferchesar
(52.6477°N, 12.4298°E)
Time: 09:06:55
(UTC+01:00)

Tiros 1 despin weight - Pass Details

Date: 11 December 2021
Orbit: 592 x 641 km, 48.2° (Epoch: 19 January)

Event Time Altitude Azimuth Distance (km) Brightness Sun altitude
Rises 09:51:13 0° 197° (SSW) 2,859 ? 9.0°
Reaches altitude 10° 09:54:38 10° 170° (S) 1,947 ? 9.3°
Maximum altitude 09:56:43 13° 142° (SE) 1,743 ? 9.4°
Drops below altitude 10° 09:58:48 10° 114° (ESE) 1,940 ? 9.6°
Sets 10:02:11 0° 87° (E) 2,838 ? 9.8°
